Printer-friendly version

IAU Minor Planet Center

Minor Planet Center

MPEC 2004-T61 : 2004 TK14

The following Minor Planet Electronic Circular may be linked-to from your own Web pages, but must not otherwise be redistributed electronically.


Read MPEC 2004-T60 Read MPEC 2004-T62


M.P.E.C. 2004-T61                                Issued 2004 Oct. 12, 22:16 UT

     The Minor Planet Electronic Circulars contain information on unusual
         minor planets and routine data on comets.  They are published
   on behalf of Commission 20 of the International Astronomical Union by the
          Minor Planet Center, Smithsonian Astrophysical Observatory,
                          Cambridge, MA 02138, U.S.A.

                  Supported in part by the Brinson Foundation
             Prepared using the Tamkin Foundation Computer Network

                              MPC@CFA.HARVARD.EDU
          URL http://cfa-www.harvard.edu/iau/mpc.html  ISSN 1523-6714

                                   2004 TK14

Observations:
     K04T14K* C2004 10 09.20983 00 44 19.86 +18 44 22.3          18.9 R ET061699
     K04T14K  C2004 10 09.22608 00 44 17.99 +18 44 43.7                 ET061699
     K04T14K  C2004 10 09.24231 00 44 16.05 +18 45 04.5                 ET061699
     K04T14K  C2004 10 09.25855 00 44 14.12 +18 45 24.9                 ET061699
     K04T14K  C2004 10 10.25113 00 42 25.35 +19 06 31.1          19.0   ET061704
     K04T14K  C2004 10 10.26214 00 42 24.01 +19 06 45.2          19.5   ET061704
     K04T14K  C2004 10 10.27315 00 42 22.68 +19 06 58.9          19.3   ET061704
     K04T14K  C2004 10 10.28418 00 42 21.36 +19 07 12.2          19.0   ET061704
     K04T14K  C2004 10 10.29525 00 42 20.01 +19 07 26.7          19.4   ET061704
     K04T14K  C2004 10 12.24695 00 38 43.93 +19 48 13.3          19.1   ET061704
     K04T14K  C2004 10 12.25803 00 38 42.58 +19 48 27.0          19.6   ET061704
     K04T14K  C2004 10 12.26910 00 38 41.24 +19 48 41.1          19.5   ET061704
     K04T14K  C2004 10 12.28017 00 38 39.92 +19 48 54.3          19.9   ET061704
     K04T14K  C2004 10 12.29125 00 38 38.55 +19 49 08.6          20.0   ET061704

Observer details:
699 Lowell Observatory-LONEOS.  Observer M. E. Van Ness.  0.59-m LONEOS
    Schmidt + CCD.
704 Lincoln Laboratory ETS, New Mexico.  Observers M. Blythe, F. Shelly,
    M. Bezpalko, R. Huber, L. Manguso, D. Torres, R. Kracke, M. McCleary,
    H. Stange, A. Milner.  Measurers J. Stuart, R. Sayer, J. Evans, J. Kommers.
    1.0-m f/2.15 reflector + CCD.

Orbital elements:
2004 TK14
Epoch 2004 Oct. 2.0 TT = JDT 2453280.5                  MPC
M 321.84182              (2000.0)            P               Q
n   0.49423058     Peri.   72.78065     +0.33852069     -0.94092804
a   1.5843446      Node   357.39509     +0.78694188     +0.28754537
e   0.2265192      Incl.    9.65986     +0.51587422     +0.17880738
P   1.99           H   19.9           G   0.15
From 14 observations 2004 Oct. 9-12.

Ephemeris:
2004 TK14                a,e,i = 1.58, 0.23, 10                  q = 1.2255
Date    TT    R. A. (2000) Decl.     Delta      r     Elong.  Phase     V
2004 10 12    00 39.19   +19 43.2    0.327    1.317   165.6    10.8    18.8
2004 10 22    00 20.98   +22 55.0    0.319    1.294   156.2    18.0    18.9
2004 11 01    00 06.47   +25 31.9    0.324    1.273   145.6    26.2    19.2
2004 11 11    23 58.84   +27 37.3    0.338    1.255   135.9    33.3    19.4
2004 11 21    23 59.54   +29 23.8    0.359    1.242   128.0    38.8    19.7
2004 12 01    00 08.41   +31 02.8    0.385    1.232   121.6    43.0    19.9
2004 12 11    00 24.58   +32 38.4    0.413    1.227   116.7    45.8    20.2
2004 12 21    00 47.22   +34 10.6    0.443    1.226   112.8    47.7    20.4
2004 12 31    01 15.34   +35 35.2    0.477    1.229   109.7    48.9    20.6
2005 01 10    01 47.98   +36 44.9    0.513    1.237   107.2    49.4    20.8
2005 01 20    02 24.18   +37 33.3    0.554    1.249   105.1    49.5    20.9
2005 01 30    03 02.74   +37 54.6    0.600    1.265   103.2    49.3    21.1
2005 02 09    03 42.41   +37 45.0    0.652    1.284   101.2    48.9    21.3
2005 02 19    04 22.10   +37 04.6    0.710    1.306    99.2    48.3    21.6
2005 03 01    05 00.83   +35 55.7    0.775    1.331    97.1    47.6    21.8
2005 03 11    05 37.94   +34 22.1    0.847    1.359    94.8    46.8    22.0

Timothy B. Spahr             (C) Copyright 2004 MPC           M.P.E.C. 2004-T61

Read MPEC 2004-T60 Read MPEC 2004-T62


Our Web policy. Index to the CBAT/MPC/ICQ pages.


Valid HTML 4.01!